Regional Weather Roundup
Issued by NWS

Home | Current Version | Previous Version | Graphics & Text | Print | Product List | Glossary On
Versions: 1 2 3 4 5 6 7 8 9 10 11 12 13 14 15 16 17 18 19 20 21 22 23 24 25 26 27 28 29 30 31 32 33 34 35 36 37 38 39 40 41 42 43 44 45 46 47 48 49 50
664
ASUS43 KLOT 110603
RWRIL

ILLINOIS REGIONAL WEATHER ROUNDUP
NATIONAL WEATHER SERVICE CHICAGO/ROMEOVILLE IL
1200 AM CST THU FEB 11 2016

NOTE: "FAIR" INDICATES FEW OR NO CLOUDS BELOW 12,000 FEET WITH NO
SIGNIFICANT WEATHER AND/OR OBSTRUCTIONS TO VISIBILITY.

* THESE STATIONS ARE NOT UNDER NWS QUALITY CONTROL. THEY ALSO MAY NOT
  REPORT WEATHER SUCH AS PRECIPITATION OR FOG.

ILZ001-002-007-009-015-016-024-110700-
NORTHWEST ILLINOIS

CITY           SKY/WX    TMP DP  RH WIND       PRES   REMARKS
MOLINE         PTCLDY    13   2  61 CALM      30.21R
6HR MIN TEMP:  13; 6HR MAX TEMP:  18;

STERLING*      CLOUDY    14   1  57 N6        30.17R WCI   5
$$

ILZ003-004-008-010-011-017-018-110700-
NORTH CENTRAL ILLINOIS

CITY           SKY/WX    TMP DP  RH WIND       PRES   REMARKS
ROCKFORD       CLOUDY    11   1  64 N7        30.20S WCI   0
6HR MIN TEMP:  10; 6HR MAX TEMP:  14;

FREEPORT*      CLOUDY    10   1  67 NW7       30.20R WCI  -1
ROCHELLE*      PTCLDY    11   4  73 NW5       30.19R WCI   2
DE KALB*       PTCLDY    10   3  72 NW3       30.17R
$$

ILZ005-006-012>014-019>023-110700-
NORTHEAST ILLINOIS

CITY           SKY/WX    TMP DP  RH WIND       PRES   REMARKS
CHICAGO-OHARE  CLOUDY    11   1  64 NW8       30.16F WCI  -1
6HR MIN TEMP:  10; 6HR MAX TEMP:  14;

CHICAGO-MIDWAY CLOUDY    14   0  53 NW8       30.17F WCI   3
6HR MIN TEMP:  13; 6HR MAX TEMP:  17;

AURORA         PTCLDY    10   3  73 N6        30.18S WCI   0
6HR MIN TEMP:  10; 6HR MAX TEMP:  16;

LANSING*       PTCLDY    12   2  62 NW5       30.16F WCI   5
WAUKEGAN       PTCLDY     7   0  73 W5        30.16S WCI  -2
6HR MIN TEMP:   6; 6HR MAX TEMP:  11;

DUPAGE AIRPORT PTCLDY    11   1  64 NW6       30.16S WCI   1
6HR MIN TEMP:   7; 6HR MAX TEMP:  14;

WHEELING       PTCLDY    10   1  67 NW7       30.18S WCI  -1
6HR MIN TEMP:  10; 6HR MAX TEMP:  14;

NORTHERLY ISL    N/A     14   1  56 NW9         N/A  WCI   2
$$

LMZ740>746-110700-
SOUTHERN LAKE MICHIGAN

STATION/POSITION SKY/WX   TEMP    WIND        PRES    VSBY  WAVE
                          AIR SEA DIR/SP/G                  HT/PER
                          (F)     (DEG/KT/KT) (MB)    (MI)  (FT/S)
HARRISON CRIB              14     300/ 12/ 13   N/A
BURNHAM HARBOR             14     300/  5/ 11   N/A
CALUMET HARBOR             12     280/  6/  9 1020.9R
BURNS HARBOR               17     290/ 11/ 17 1021.3S
MICHIGAN CITY              17     270/ 17/ 19   N/A
$$

ILZ025>027-034>036-040-047-049-050-058-095>099-110700-
WEST-CENTRAL ILLINOIS

CITY           SKY/WX    TMP DP  RH WIND       PRES   REMARKS
QUINCY         CLOUDY    19  14  81 NE5       30.18R WCI  12
MACOMB*        CLOUDY    19  14  79 N6        30.21R WCI  11
$$

ILZ028>032-037-038-041>044-048-051>054-059>061-110700-
CENTRAL ILLINOIS

CITY           SKY/WX    TMP DP  RH WIND       PRES   REMARKS
BLOOMINGTON    PTCLDY    14   5  67 N8        30.17S WCI   3
DECATUR        CLOUDY    19  10  68 N8        30.17R WCI   9
PEORIA         CLOUDY    16   5  62 N8        30.19S WCI   5
6HR MIN TEMP:  14; 6HR MAX TEMP:  19;

LINCOLN*       CLOUDY    18  10  72 CALM      30.18S
SPRINGFIELD    CLOUDY    21  15  78 N6        30.18S WCI  13
6HR MIN TEMP:  20; 6HR MAX TEMP:  21;

TAYLORVILLE    NOT AVBL
$$

ILZ033-039-045-046-055>057-062-063-110700-
EAST-CENTRAL ILLINOIS

CITY           SKY/WX    TMP DP  RH WIND       PRES   REMARKS
CHAMPAIGN      CLOUDY    15   9  76 NW6       30.16S WCI   6
MATTOON        CLOUDY    18  14  84 NW6       30.16S WCI  10
$$

ILZ079-100>102-110700-
SOUTHWEST ILLINOIS

CITY           SKY/WX    TMP DP  RH WIND       PRES   REMARKS
ALTON          CLOUDY    21  18  87 NE5       30.18S WCI  15
BELLEVILLE     CLOUDY    22  21  95 NE5       30.16S WCI  16
CAHOKIA*       CLOUDY    24  19  81 NE5       30.17S WCI  18
SPARTA*        CLOUDY    22  20  91 E5        30.16F WCI  16
$$

ILZ064>066-069>071-074>076-080>082-084>086-088>090-092>094-110700-
SOUTH-CENTRAL ILLINOIS

CITY           SKY/WX    TMP DP  RH WIND       PRES   REMARKS
CARBONDALE     CLOUDY    23  18  81 E3        30.16F
6HR MIN TEMP:  22; 6HR MAX TEMP:  23; 6HR PCP:  0.01;

MARION         CLOUDY    25  21  86 CALM      30.17F
MT. VERNON     CLOUDY    21  14  73 CALM      30.18S
CENTRALIA*     CLOUDY    21  19  92 CALM      30.17S
SALEM*         CLOUDY    22  18  85 CALM      30.18S
$$

ILZ067-068-072-073-078-083-087-091-110700-
SOUTHEAST ILLINOIS

CITY           SKY/WX    TMP DP  RH WIND       PRES   REMARKS
LAWRENCEVILLE  CLOUDY    20  16  84 NW5       30.19F WCI  13
HARRISBURG*    CLOUDY    23  20  89 CALM      30.18F
ROBINSON*      CLOUDY    19  14  82 NW3       30.20S
$$

ABBREVIATIONS USED IN REMARKS
   TC - TEMPERATURE IN CELSIUS
  WCI - WIND CHILL INDEX
   HX - HEAT INDEX
  VSB - VISIBILITY
$$





USA.gov is the U.S. government's official web portal to all federal, state and local government web resources and services.